FW9486 Weather Reports


Display with metric or nautical units.
time (UTC)temp
F
wind
direction
speed
MPH
gust
MPH
rain 1hr
in
rain 24hr
in
rain mn
in
humidity
%
barometer
mb
20260905031541 49 0 0.0 1.0 0.00 0.35 0.25 81 1012.4
20260905030058 50 0 0.0 0.0 0.00 0.35 0.25 80 1012.7
20260905024546 51 0 0.0 0.0 0.00 0.36 0.25 77 1012.6
20260905023043 51 28 0.0 1.0 0.00 0.36 0.25 79 1012.6
20260905021541 52 0 0.0 0.0 0.00 0.36 0.25 75 1012.5
20260905020100 54 0 0.0 0.0 0.00 0.36 0.25 71 1012.4
20260905014548 55 0 0.0 0.0 0.00 0.42 0.25 67 1012.6
20260905013043 56 0 0.0 2.0 0.00 0.42 0.25 65 1012.5
20260905011549 56 0 0.0 0.0 0.00 0.42 0.25 65 1012.7
20260905010056 55 0 0.0 0.0 0.00 0.42 0.25 67 1012.7
20260905004606 56 0 0.0 0.0 0.00 0.44 0.25 67 1012.5
20260905003042 56 0 0.0 3.0 0.00 0.44 0.25 65 1012.4
20260905001547 57 0 0.0 2.0 0.00 0.44 0.25 63 1012.7
20260905000047 56 0 0.0 2.0 0.00 0.44 0.25 64 1012.5
20260904234548 56 304 0.0 5.0 0.00 0.44 0.25 64 1012.6
20260904233050 56 0 0.0 5.0 0.00 0.44 0.25 63 1012.5
20260904231541 56 308 0.0 2.0 0.00 0.44 0.25 63 1012.6
20260904230048 57 216 1.0 5.0 0.00 0.44 0.25 59 1012.6
20260904224550 56 226 1.0 6.0 0.00 0.44 0.25 59 1012.5
20260904223043 56 188 0.0 3.0 0.00 0.44 0.25 56 1012.5
20260904221542 56 308 3.0 9.0 0.00 0.44 0.25 55 1012.2
20260904220056 56 310 1.0 7.0 0.00 0.44 0.25 56 1012.2
20260904214549 55 274 2.0 6.0 0.00 0.44 0.25 55 1012.3
20260904213043 56 296 1.0 7.0 0.00 0.44 0.25 53 1012.1
20260904211547 57 296 4.0 7.0 0.00 0.44 0.25 48 1011.9
20260904210052 57 0 0.0 3.0 0.00 0.44 0.25 50 1011.3
20260904204542 58 354 1.0 3.0 0.00 0.44 0.25 47 1011.3
20260904203050 57 0 0.0 2.0 0.00 0.44 0.25 63 1011.7
20260904201550 57 0 1.0 8.0 0.00 0.44 0.25 63 1011.2
20260904200047 56 110 1.0 5.0 0.00 0.44 0.25 65 1011.5
20260904194541 57 126 0.0 2.0 0.00 0.46 0.25 68 1011.5
20260904193041 55 137 1.0 4.0 0.00 0.46 0.25 71 1011.5
20260904191546 56 122 1.0 3.0 0.00 0.46 0.25 69 1011.8
20260904190042 55 102 1.0 3.0 0.00 0.46 0.25 70 1011.6
20260904184542 54 122 1.0 4.0 0.00 0.47 0.25 70 1011.9
20260904183042 54 106 1.0 4.0 0.00 0.47 0.25 73 1011.9
20260904181553 54 120 0.0 5.0 0.00 0.47 0.25 74 1011.9
20260904180045 54 72 1.0 5.0 0.00 0.47 0.25 74 1012.1
20260904174548 53 105 1.0 4.0 0.00 0.47 0.25 75 1011.8
20260904173041 52 67 1.0 5.0 0.00 0.47 0.25 77 1011.8
20260904171557 51 131 1.0 4.0 0.00 0.47 0.25 80 1011.6
20260904170041 49 0 0.0 1.0 0.00 0.47 0.25 83 1011.8
20260904164548 48 0 0.0 3.0 0.00 0.48 0.25 81 1011.8
20260904163049 48 0 0.0 2.0 0.00 0.48 0.25 84 1011.8
20260904161546 48 0 0.0 2.0 0.00 0.48 0.25 90 1011.6
20260904160043 47 0 0.0 2.0 0.00 0.48 0.25 91 1011.6
20260904154542 46 0 0.0 1.0 0.00 0.48 0.25 94 1011.6
20260904153055 46 0 0.0 0.0 0.00 0.48 0.25 95 1011.3
20260904151545 45 117 0.0 0.0 0.00 0.48 0.25 95 1011.3
20260904150045 44 0 0.0 0.0 0.00 0.48 0.25 95 1011.2
20260904144549 44 0 0.0 0.0 0.00 0.51 0.25 96 1011.2
20260904143045 44 0 0.0 2.0 0.00 0.51 0.25 96 1010.8
20260904141543 43 0 0.0 4.0 0.00 0.51 0.25 96 1010.3
20260904140050 43 314 1.0 5.0 0.00 0.51 0.25 96 1010.1
20260904134549 42 318 0.0 3.0 0.00 0.58 0.25 96 1010.0
20260904133048 42 0 0.0 1.0 0.00 0.58 0.25 96 1009.8
20260904131556 42 0 0.0 0.0 0.00 0.58 0.25 95 1009.7
20260904130042 42 0 0.0 2.0 0.00 0.58 0.25 96 1009.7
20260904124547 42 322 0.0 3.0 0.00 0.58 0.25 96 1009.8
20260904123046 42 0 0.0 1.0 0.00 0.58 0.25 96 1009.8
20260904121544 42 0 0.0 1.0 0.00 0.58 0.25 96 1009.5
20260904120049 42 0 0.0 0.0 0.00 0.58 0.25 96 1009.4
20260904114552 42 0 0.0 0.0 0.00 0.58 0.25 95 1009.6
20260904113052 42 0 0.0 0.0 0.00 0.58 0.25 95 1009.4
20260904111544 42 0 0.0 1.0 0.00 0.58 0.25 95 1008.9
20260904110053 42 356 0.0 1.0 0.00 0.58 0.25 95 1009.1
20260904104552 43 0 0.0 1.0 0.00 0.58 0.25 95 1008.9
20260904103051 43 0 0.0 0.0 0.00 0.58 0.25 95 1008.7
20260904101551 43 0 0.0 0.0 0.00 0.58 0.25 95 1008.5
20260904100045 43 0 0.0 0.0 0.00 0.58 0.25 95 1008.6
20260904094547 43 0 0.0 0.0 0.00 0.60 0.25 95 1008.2
20260904093042 43 121 1.0 5.0 0.00 0.60 0.25 95 1008.0
20260904091604 42 229 2.0 7.0 0.02 0.60 0.25 95 1008.0
20260904090049 42 298 5.0 9.0 0.04 0.60 0.25 95 1008.0
20260904084546 42 354 3.0 5.0 0.07 0.62 0.25 95 1007.5
20260904083106 42 0 0.0 1.0 0.09 0.62 0.25 95 1007.6
20260904081549 42 0 1.0 2.0 0.09 0.60 0.23 95 1008.0
20260904080045 42 0 0.0 4.0 0.07 0.57 0.20 95 1008.2
20260904074600 42 300 1.0 3.0 0.09 0.55 0.18 95 1008.6
20260904073051 42 230 1.0 4.0 0.10 0.52 0.16 95 1008.3
20260904071547 42 108 0.0 0.0 0.11 0.51 0.14 95 1008.4
20260904070049 43 0 0.0 0.0 0.13 0.50 0.13 94 1008.3
20260904064540 43 0 0.0 3.0 0.10 0.46 0.09 94 1008.3
20260904063053 43 280 1.0 3.0 0.10 0.43 0.06 94 1008.2
20260904061546 42 305 2.0 3.0 0.09 0.40 0.03 93 1007.9
20260904060045 43 307 1.0 3.0 0.06 0.37 0.00 93 1007.4
20260904054542 43 328 2.0 5.0 0.06 0.36 0.36 93 1007.1
20260904053047 44 349 0.0 2.0 0.04 0.33 0.33 92 1007.0
20260904051547 44 224 1.0 8.0 0.02 0.31 0.31 91 1006.5
20260904050043 45 296 4.0 12.0 0.02 0.31 0.31 89 1006.2
20260904044541 47 276 2.0 9.0 0.02 0.30 0.30 92 1005.9
20260904043054 48 297 1.0 3.0 0.01 0.29 0.29 94 1005.3
20260904041551 48 0 0.0 1.0 0.02 0.29 0.29 94 1005.2
20260904040103 48 0 0.0 2.0 0.02 0.29 0.29 94 1005.3
20260904034543 49 0 0.0 2.0 0.01 0.28 0.28 94 1005.2
20260904033040 49 0 0.0 2.0 0.01 0.28 0.28 94 1005.2